Change the Weather History Date:

Friday, December 21, 2012

  Actual Average Record
Temperature  
Mean Temperature 36 °F 40 °F  
Max Temperature 43 °F 49 °F 76 °F (2013)
Min Temperature 29 °F 30 °F 1 °F (1989)
Degree Days  
Heating Degree Days 29 25  
Month to date heating degree days 274 490  
Since 1 July heating degree days 1081 1157  
Cooling Degree Days 0 0  
Month to date cooling degree days 3 0  
Year to date cooling degree days 1934 1697  
Moisture  
Dew Point 17 °F    
Average Humidity 48    
Maximum Humidity 63    
Minimum Humidity 33    
Precipitation  
Precipitation 0.00 in 0.17 in 2.06 in (1990)
Month to date precipitation 2.74 3.79  
Year to date precipitation 40.37 51.71  
Snow  
Snow 0.00 in 0.10 in T in (1995)
Month to date snowfall 0.0 0.1  
Since 1 July snowfall 0.0 0.2  
Snow Depth 0.00 in    
Sea Level Pressure  
Sea Level Pressure 30.25 in    
Wind  
Wind Speed 13 mph (WNW)    
Max Wind Speed 24 mph    
Max Gust Speed 30 mph    
Visibility 10 miles    
Events      
T = Trace of Precipitation, MM = Missing Value Source: NWS Daily Summary

Daily Weather History Graph

Daily Weather History Graph

Search for Another Location

Airport or City:

Trip Planner

Search our weather history database for the weather conditions in past years. The results will help you decide how hot, cold, wet, or windy it might be!

Date:

Astronomy

Dec. 21, 2012 Rise Set
Actual Time 7:01 AM CST 4:46 PM CST
Civil Twilight 6:33 AM CST 5:15 PM CST
Nautical Twilight 6:01 AM CST 5:46 PM CST
Astronomical Twilight 5:30 AM CST 6:18 PM CST
Moon 12:25 PM CST (12/21) 12:56 AM CST (12/21)
Length of Visible Light 10h 41m
Length of Day
9h 44m
Waxing Gibbous, 65% of the Moon is Illuminated
Dec 21
Waxing Gibbous
Dec 28
Full
Jan 4
Last Quarter
Jan 11
New
Jan 18
First Quarter

Hourly Weather History & Observations

Time (CST) Temp. Windchill Dew Point Humidity Pressure Visibility Wind Dir Wind Speed Gust Speed Precip Events Conditions
12:53 AM 34.0 °F 24.2 °F 19.9 °F 56% 30.10 in 10.0 mi West 15.0 mph 24.2 mph N/A   Clear
1:53 AM 33.1 °F 21.9 °F 19.9 °F 59% 30.12 in 10.0 mi West 18.4 mph 27.6 mph N/A   Clear
2:53 AM 32.0 °F 20.8 °F 19.9 °F 61% 30.14 in 10.0 mi West 17.3 mph 23.0 mph N/A   Clear
3:53 AM 32.0 °F 21.2 °F 19.9 °F 61% 30.15 in 10.0 mi West 16.1 mph 24.2 mph N/A   Clear
4:53 AM 30.9 °F 19.4 °F 19.0 °F 61% 30.17 in 10.0 mi West 17.3 mph 24.2 mph N/A   Clear
5:53 AM 30.0 °F 18.7 °F 19.0 °F 64% 30.20 in 10.0 mi West 16.1 mph 24.2 mph N/A   Clear
6:53 AM 30.0 °F 20.5 °F 17.1 °F 59% 30.23 in 10.0 mi West 11.5 mph - N/A   Clear
7:53 AM 30.9 °F 21.2 °F 17.1 °F 57% 30.25 in 10.0 mi West 12.7 mph - N/A   Clear
8:53 AM 34.0 °F 23.0 °F 16.0 °F 48% 30.27 in 10.0 mi West 18.4 mph 25.3 mph N/A   Clear
9:53 AM 36.0 °F 26.0 °F 16.0 °F 44% 30.29 in 10.0 mi WNW 17.3 mph 29.9 mph N/A   Clear
10:53 AM 39.9 °F 31.1 °F 17.1 °F 40% 30.29 in 10.0 mi WNW 17.3 mph 24.2 mph N/A   Clear
11:53 AM 42.1 °F 34.5 °F 16.0 °F 35% 30.26 in 10.0 mi WNW 15.0 mph 21.9 mph N/A   Clear
12:53 PM 42.1 °F 34.2 °F 16.0 °F 35% 30.26 in 10.0 mi WNW 16.1 mph 28.8 mph N/A   Clear
1:53 PM 43.0 °F 33.5 °F 17.1 °F 35% 30.26 in 10.0 mi NW 24.2 mph 29.9 mph N/A   Clear
2:53 PM 42.1 °F 35.7 °F 16.0 °F 35% 30.27 in 10.0 mi NW 11.5 mph 23.0 mph N/A   Clear
3:53 PM 41.0 °F 34.7 °F 15.1 °F 35% 30.28 in 10.0 mi NW 10.4 mph - N/A   Clear
4:53 PM 37.9 °F 33.5 °F 17.1 °F 43% 30.29 in 10.0 mi WNW 5.8 mph - N/A   Clear
5:53 PM 35.1 °F 30.1 °F 16.0 °F 46% 30.30 in 10.0 mi West 5.8 mph - N/A   Clear
6:53 PM 34.0 °F 28.8 °F 16.0 °F 48% 30.31 in 10.0 mi West 5.8 mph - N/A   Clear
7:53 PM 32.0 °F 25.6 °F 16.0 °F 52% 30.31 in 10.0 mi West 6.9 mph - N/A   Clear
8:53 PM 32.0 °F 25.6 °F 16.0 °F 52% 30.32 in 10.0 mi West 6.9 mph - N/A   Clear
9:53 PM 33.1 °F 27.7 °F 15.1 °F 48% 30.33 in 10.0 mi WNW 5.8 mph - N/A   Clear
10:53 PM 33.1 °F 28.7 °F 15.1 °F 48% 30.32 in 10.0 mi NW 4.6 mph - N/A   Clear
11:53 PM 32.0 °F 27.5 °F 12.9 °F 45% 30.32 in 10.0 mi WNW 4.6 mph - N/A   Clear